Overview Statistics Trail Chart Weather Telemetry Raw packets
 

This is the latest recevied weather packets stored in our database for station/object KB0BS-13. If no packets are shown the sender has not sent any weather packets the latest 10 day(s).

<< 67 68 69 70 71 72 73 >>
Time Temp. Humidity Pressure Rain* Wind** Luminosity Snow
1777226142 13.89° C 67% 1022.3 hPa 0 mm - 548 W/m² -
1777225838 13.89° C 65% 1022.4 hPa 0 mm - 486 W/m² -
1777225534 13.89° C 64% 1022.3 hPa 0 mm - 594 W/m² -
1777225232 13.89° C 63% 1022.4 hPa 0 mm - 582 W/m² -
1777224928 13.89° C 65% 1022.6 hPa 0 mm - 539 W/m² -
1777224626 13.89° C 62% 1022.6 hPa 0 mm - 610 W/m² -
1777224325 13.89° C 60% 1022.5 hPa 0 mm - 632 W/m² -
1777224021 13.89° C 68% 1022.6 hPa 0 mm - 687 W/m² -
1777223720 13.33° C 62% 1022.8 hPa 0 mm - 692 W/m² -
1777223415 13.33° C 63% 1022.8 hPa 0 mm - 676 W/m² -
1777223113 13.89° C 65% 1022.5 hPa 0 mm - 748 W/m² -
1777222809 13.33° C 65% 1022.6 hPa 0 mm - 671 W/m² -
1777222508 13.33° C 62% 1022.8 hPa 0 mm - 481 W/m² -
1777222205 13.89° C 63% 1022.8 hPa 0 mm - 381 W/m² -
1777221903 13.89° C 61% 1022.8 hPa 0 mm - 688 W/m² -
1777221603 13.89° C 64% 1023 hPa 0 mm - 711 W/m² -
1777221300 13.33° C 62% 1022.8 hPa 0 mm - 707 W/m² -
1777220996 13.33° C 63% 1023 hPa 0 mm - 586 W/m² -
1777220691 13.33° C 68% 1022.9 hPa 0 mm - 690 W/m² -
1777220389 13.33° C 67% 1022.9 hPa 0 mm - 680 W/m² -
1777220088 12.78° C 68% 1022.9 hPa 0 mm - 429 W/m² -
1777219785 12.78° C 68% 1022.9 hPa 0 mm - 637 W/m² -
1777219483 12.78° C 66% 1022.9 hPa 0 mm - 260 W/m² -
1777219178 12.78° C 69% 1022.8 hPa 0 mm - 575 W/m² -
1777218875 12.78° C 67% 1022.7 hPa 0 mm - 480 W/m² -

* Rain latest hour (hover to see other rain measurements)
** Current wind speed in m/s (hover to see current wind gust speed)